TimeEST,TemperatureF,Dew PointF,Humidity,Sea Level PressureIn,VisibilityMPH,Wind Direction,Wind SpeedMPH,Gust SpeedMPH,PrecipitationIn,Events,Conditions,WindDirDegrees,DateUTC
12:56 AM,34.0,34.0,100,30.15,7.0,NNE,8.1,-,N/A,,Overcast,20,2012-11-28 05:56:00
1:56 AM,34.0,33.1,96,30.17,7.0,North,10.4,-,N/A,,Overcast,350,2012-11-28 06:56:00
2:56 AM,34.0,32.0,92,30.15,7.0,North,10.4,-,N/A,,Overcast,10,2012-11-28 07:56:00
3:56 AM,34.0,33.1,96,30.14,7.0,North,10.4,-,N/A,,Overcast,10,2012-11-28 08:56:00
4:56 AM,34.0,33.1,96,30.18,7.0,North,10.4,-,N/A,,Overcast,350,2012-11-28 09:56:00
5:56 AM,34.0,21.9,61,30.16,7.0,North,13.8,-,N/A,,Overcast,360,2012-11-28 10:56:00
6:56 AM,34.0,30.9,89,30.17,7.0,North,8.1,18.4,N/A,,Overcast,360,2012-11-28 11:56:00
7:56 AM,35.1,30.9,85,30.18,7.0,North,11.5,-,N/A,,Overcast,350,2012-11-28 12:56:00
8:56 AM,35.1,30.9,85,30.17,7.0,North,11.5,-,N/A,,Overcast,360,2012-11-28 13:56:00
9:56 AM,36.0,30.0,79,30.18,10.0,North,16.1,-,N/A,,Overcast,360,2012-11-28 14:56:00
10:56 AM,36.0,28.0,73,30.17,9.0,North,12.7,-,N/A,,Overcast,350,2012-11-28 15:56:00
11:56 AM,39.9,28.9,65,30.16,10.0,NNE,9.2,-,N/A,,Clear,20,2012-11-28 16:56:00
12:56 PM,42.1,28.0,58,30.14,10.0,North,10.4,-,N/A,,Clear,350,2012-11-28 17:56:00
1:56 PM,41.0,25.0,53,30.12,10.0,NNW,11.5,-,N/A,,Partly Cloudy,340,2012-11-28 18:56:00
2:56 PM,39.0,24.1,55,30.14,10.0,NW,10.4,-,N/A,,Mostly Cloudy,320,2012-11-28 19:56:00
3:56 PM,39.0,24.1,55,30.14,9.0,NW,5.8,-,N/A,,Overcast,320,2012-11-28 20:56:00
4:56 PM,39.0,25.0,57,30.15,10.0,NW,11.5,-,N/A,,Overcast,310,2012-11-28 21:56:00
5:56 PM,37.0,21.9,54,30.18,10.0,WNW,9.2,17.3,N/A,,Partly Cloudy,300,2012-11-28 22:56:00
6:56 PM,35.1,21.9,59,30.19,10.0,WNW,5.8,-,N/A,,Clear,290,2012-11-28 23:56:00
7:56 PM,35.1,23.0,61,30.20,10.0,West,6.9,-,N/A,,Clear,270,2012-11-29 00:56:00
8:56 PM,34.0,23.0,64,30.21,10.0,West,9.2,-,N/A,,Clear,280,2012-11-29 01:56:00
9:56 PM,32.0,23.0,69,30.21,10.0,West,8.1,-,N/A,,Clear,280,2012-11-29 02:56:00
10:56 PM,32.0,23.0,69,30.21,10.0,West,6.9,-,N/A,,Clear,280,2012-11-29 03:56:00
11:56 PM,30.9,21.9,69,30.22,9.0,WNW,5.8,-,N/A,,Clear,290,2012-11-29 04:56:00